User: anonymous   Login
Location: Meanaryar
(48.4161°N, 4.7315°W)
Time: 12:09:50
(UTC+00:00)
Language:

Cosmos 1943 - Orbit

View from above orbital plane
View from above orbital plane
View from above satellite
View from above satellite

Ground track
Ground track

The orbit data is extracted from the following two-line orbital elements,

1 19119U 88039A   20329.77477851 -.00000038  00000-0  52590-5 0  9999
2 19119  71.0027 342.7538 0013587 300.0156 233.3531 14.15159542679864
Epoch (UTC): 24 November 2020 18:35:40
Eccentricity: 0.0013587
inclination: 71.0027°
perigee height: 832 km
apogee height: 851 km
right ascension of ascending node: 342.7538°
argument of perigee: 300.0156°
revolutions per day: 14.15159542
mean anomaly at epoch: 233.3531°
orbit number at epoch: 67986

The dashed part of the orbit path shows where the satellite is in the earth's shadow,  

DLR